TimeEST,TemperatureF,Dew PointF,Humidity,Sea Level PressureIn,VisibilityMPH,Wind Direction,Wind SpeedMPH,Gust SpeedMPH,PrecipitationIn,Events,Conditions,WindDirDegrees,DateUTC
12:53 AM,24.1,14.0,65,30.36,10.0,East,9.2,-,N/A,,Clear,100,2013-02-10 05:53:00
1:53 AM,24.1,14.0,65,30.34,10.0,East,9.2,-,N/A,,Clear,100,2013-02-10 06:53:00
2:53 AM,24.1,14.0,65,30.34,10.0,ESE,6.9,-,N/A,,Clear,110,2013-02-10 07:53:00
3:53 AM,21.9,12.9,68,30.31,10.0,East,6.9,-,N/A,,Clear,100,2013-02-10 08:53:00
4:53 AM,23.0,14.0,68,30.31,10.0,East,4.6,-,N/A,,Clear,100,2013-02-10 09:53:00
5:53 AM,23.0,14.0,68,30.29,10.0,East,6.9,-,N/A,,Clear,100,2013-02-10 10:53:00
6:53 AM,24.1,14.0,65,30.30,10.0,East,5.8,-,N/A,,Clear,100,2013-02-10 11:53:00
7:53 AM,25.0,14.0,63,30.30,10.0,ESE,6.9,-,N/A,,Clear,110,2013-02-10 12:53:00
8:53 AM,27.0,16.0,63,30.29,10.0,East,4.6,-,N/A,,Clear,100,2013-02-10 13:53:00
9:53 AM,30.9,14.0,50,30.27,10.0,SE,6.9,-,N/A,,Clear,140,2013-02-10 14:53:00
10:53 AM,39.9,16.0,38,30.25,10.0,SSE,5.8,-,N/A,,Clear,160,2013-02-10 15:53:00
11:53 AM,44.1,15.1,31,30.22,10.0,SSE,5.8,-,N/A,,Overcast,160,2013-02-10 16:53:00
12:53 PM,42.1,19.9,41,30.19,10.0,Calm,Calm,-,N/A,,Mostly Cloudy,0,2013-02-10 17:53:00
1:53 PM,48.9,18.0,29,30.13,10.0,SSE,8.1,-,N/A,,Overcast,150,2013-02-10 18:53:00
2:53 PM,50.0,19.0,29,30.11,10.0,SE,8.1,-,N/A,,Overcast,140,2013-02-10 19:53:00
3:53 PM,48.9,21.0,33,30.08,10.0,East,9.2,-,N/A,,Overcast,100,2013-02-10 20:53:00
4:53 PM,48.0,21.0,34,30.06,10.0,East,9.2,-,N/A,,Overcast,90,2013-02-10 21:53:00
5:53 PM,46.9,21.0,36,30.06,10.0,East,5.8,-,N/A,,Overcast,100,2013-02-10 22:53:00
6:53 PM,44.1,23.0,43,30.06,10.0,ESE,6.9,-,N/A,,Scattered Clouds,120,2013-02-10 23:53:00
7:53 PM,44.1,24.1,45,30.04,10.0,ESE,10.4,-,N/A,,Scattered Clouds,120,2013-02-11 00:53:00
8:53 PM,45.0,23.0,42,29.99,10.0,SE,15.0,-,N/A,,Overcast,130,2013-02-11 01:53:00
9:53 PM,46.9,21.9,37,29.97,10.0,South,16.1,24.2,0.00,,Overcast,170,2013-02-11 02:53:00
10:53 PM,46.0,27.0,47,29.95,10.0,South,20.7,28.8,0.00,,Overcast,170,2013-02-11 03:53:00
11:53 PM,42.1,36.0,79,29.94,9.0,SSE,13.8,29.9,0.00,Rain,Light Rain,160,2013-02-11 04:53:00